N7WSS Weather Reports


time (UTC)temp
F
wind
direction
speed
knots
gust
knots
rain 1hr
in
rain 24hr
in
rain mn
in
humidity
%
barometer
mb
20260506013806 69 33 2.6 8.7 0.00 0.21 0.21 33 1009.0
20260506013303 69 138 1.7 7.8 0.00 0.21 0.21 33 1009.0
20260506012800 70 63 1.7 5.2 0.00 0.21 0.21 34 1008.9
20260506012256 70 141 2.6 5.2 0.00 0.21 0.21 33 1008.9
20260506011754 70 55 2.6 7.8 0.00 0.21 0.21 34 1008.8
20260506011250 70 72 3.5 8.7 0.00 0.21 0.21 35 1008.9
20260506010748 70 84 3.5 8.7 0.00 0.21 0.21 34 1008.7
20260506010245 71 118 1.7 7.8 0.00 0.21 0.21 34 1008.7
20260506005743 71 85 1.7 6.1 0.00 0.21 0.21 34 1008.7
20260506005239 70 64 2.6 7.8 0.00 0.21 0.21 34 1008.5
20260506004735 70 127 3.5 7.8 0.00 0.21 0.21 33 1008.5
20260506004233 71 96 3.5 8.7 0.00 0.21 0.21 33 1008.4
20260506003729 72 120 3.5 8.7 0.00 0.21 0.21 32 1008.5
20260506003225 73 76 1.7 3.5 0.00 0.21 0.21 30 1008.5
20260506002721 73 101 0.9 6.1 0.00 0.21 0.21 30 1008.3
20260506002218 73 91 4.3 6.1 0.00 0.21 0.21 30 1008.4
20260506001713 74 100 4.3 7.0 0.00 0.21 0.21 29 1008.3
20260506001211 73 78 5.2 9.6 0.00 0.21 0.21 29 1008.2
20260506000708 74 63 5.2 7.8 0.00 0.21 0.21 28 1008.4
20260506000206 74 72 5.2 8.7 0.00 0.21 0.21 29 1008.3
20260505235703 74 109 2.6 8.7 0.00 0.21 0.21 29 1008.4
20260505235201 74 115 1.7 9.6 0.00 0.21 0.21 29 1008.2
20260505234657 74 134 1.7 8.7 0.00 0.21 0.21 28 1008.3
20260505234154 74 46 2.6 7.8 0.00 0.21 0.21 28 1008.1
20260505233651 74 83 6.1 8.7 0.00 0.21 0.21 27 1008.2
20260505233149 75 111 2.6 7.8 0.00 0.21 0.21 28 1008.2
20260505232646 74 91 1.7 6.1 0.00 0.21 0.21 26 1008.1
20260505232144 75 152 4.3 7.8 0.00 0.21 0.21 26 1008.2
20260505231640 74 70 4.3 11.3 0.00 0.21 0.21 26 1008.3
20260505231139 74 14 6.1 8.7 0.00 0.21 0.21 26 1008.2
20260505230637 75 95 4.3 7.0 0.00 0.21 0.21 28 1008.0
20260505230132 75 106 4.3 11.3 0.00 0.21 0.21 29 1008.0
20260505225629 75 338 3.5 8.7 0.00 0.21 0.21 30 1008.2
20260505225125 75 118 3.5 8.7 0.00 0.21 0.21 31 1008.2
20260505224622 74 90 3.5 6.1 0.00 0.21 0.21 32 1008.3
20260505224120 76 108 4.3 8.7 0.00 0.21 0.21 31 1008.1
20260505223617 75 104 3.5 6.1 0.00 0.21 0.21 32 1008.2
20260505223113 75 128 3.5 13.9 0.00 0.21 0.21 32 1008.3
20260505222609 74 63 3.5 7.8 0.00 0.21 0.21 33 1008.5
20260505222106 75 1 3.5 8.7 0.00 0.21 0.21 32 1008.4
20260505221603 76 110 5.2 7.8 0.00 0.21 0.21 31 1008.4
20260505221059 76 47 7.0 12.2 0.00 0.21 0.21 31 1008.4
20260505220556 75 349 9.6 13.9 0.00 0.21 0.21 34 1008.4
20260505220054 76 103 0.9 6.1 0.00 0.21 0.21 34 1008.7
20260505215552 76 64 5.2 9.6 0.00 0.21 0.21 34 1008.7
20260505215050 75 77 6.1 13.0 0.00 0.21 0.21 34 1008.8
20260505214547 74 65 7.0 13.0 0.00 0.21 0.21 36 1008.9
20260505214044 75 66 4.3 13.0 0.00 0.21 0.21 35 1008.8
20260505213542 73 77 4.3 7.0 0.00 0.21 0.21 36 1008.7
20260505213038 75 39 4.3 8.7 0.00 0.21 0.21 35 1008.8
20260505212534 75 87 6.1 15.6 0.00 0.21 0.21 36 1008.9
20260505212032 76 93 5.2 8.7 0.00 0.21 0.21 35 1009.0
20260505211529 76 86 7.8 12.2 0.00 0.21 0.21 34 1008.9
20260505211025 76 85 4.3 12.2 0.00 0.21 0.21 35 1009.0
20260505210522 76 149 6.1 11.3 0.00 0.21 0.21 35 1009.0
20260505210020 76 287 2.6 11.3 0.00 0.21 0.21 35 1009.1
20260505205518 75 56 5.2 9.6 0.00 0.21 0.21 33 1009.2
20260505205014 75 54 4.3 7.0 0.00 0.21 0.21 36 1009.2
20260505204512 75 123 5.2 13.0 0.00 0.21 0.21 35 1009.2
20260505204009 75 78 7.0 13.0 0.00 0.21 0.21 37 1009.2
20260505203505 75 215 5.2 7.8 0.00 0.21 0.21 37 1009.3
20260505203002 74 99 3.5 8.7 0.00 0.21 0.21 39 1009.2
20260505202459 75 67 5.2 11.3 0.00 0.21 0.21 38 1009.5
20260505201954 74 36 5.2 7.8 0.00 0.21 0.21 40 1009.4
20260505201452 73 104 6.1 7.8 0.00 0.21 0.21 41 1009.4
20260505200949 73 42 2.6 8.7 0.00 0.21 0.21 42 1009.3
20260505200447 73 57 4.3 7.0 0.00 0.21 0.21 41 1009.5
20260505195942 74 103 2.6 9.6 0.00 0.21 0.21 41 1009.6
20260505195439 73 124 3.5 7.0 0.00 0.21 0.21 39 1009.4
20260505194937 76 82 6.1 8.7 0.00 0.21 0.21 36 1009.5
20260505194434 75 93 5.2 7.0 0.00 0.21 0.21 38 1009.6
20260505193934 74 137 3.5 7.8 0.00 0.21 0.21 38 1009.5
20260505193432 72 265 3.5 9.6 0.00 0.21 0.21 42 1009.6
20260505192930 71 110 0.9 3.5 0.00 0.21 0.21 50 1009.5
20260505192428 72 164 3.5 5.2 0.00 0.21 0.21 47 1009.7
20260505191925 71 112 4.3 7.0 0.00 0.21 0.21 51 1009.7
20260505191424 72 297 0.9 1.7 0.00 0.21 0.21 47 1009.6
20260505190920 71 122 0.0 2.6 0.00 0.21 0.21 53 1010.1
20260505190416 72 74 1.7 3.5 0.00 0.21 0.21 52 1010.1
20260505185911 69 127 0.9 6.1 0.00 0.21 0.21 55 1010.1
20260505185409 70 132 0.9 2.6 0.00 0.21 0.21 55 1010.1
20260505184904 71 113 0.9 1.7 0.00 0.21 0.21 52 1010.2
20260505184401 70 126 0.0 1.7 0.00 0.21 0.21 56 1010.4
20260505183858 69 37 0.9 2.6 0.00 0.21 0.21 53 1010.4
20260505183355 71 96 3.5 5.2 0.00 0.21 0.21 53 1010.3
20260505182852 72 187 1.7 5.2 0.00 0.21 0.21 51 1010.4
20260505182349 71 140 1.7 2.6 0.00 0.21 0.21 52 1010.4
20260505181845 70 37 0.0 2.6 0.00 0.21 0.21 55 1010.5
20260505181343 71 89 1.7 2.6 0.00 0.21 0.21 53 1010.6
20260505180839 69 168 0.9 2.6 0.00 0.21 0.21 54 1010.6
20260505180336 69 87 1.7 2.6 0.00 0.21 0.21 55 1010.9
20260505175832 70 159 1.7 6.1 0.00 0.21 0.21 55 1010.7
20260505175328 70 13 1.7 3.5 0.00 0.21 0.21 55 1010.8
20260505174825 70 82 0.9 2.6 0.00 0.21 0.21 57 1010.8
20260505174323 69 300 0.0 2.6 0.00 0.21 0.21 56 1011.2
20260505173819 67 186 3.5 3.5 0.00 0.21 0.21 59 1010.8
20260505173315 67 125 2.6 3.5 0.00 0.21 0.21 60 1010.8
20260505172813 67 223 0.9 1.7 0.00 0.21 0.21 59 1011.2
20260505172310 68 136 1.7 5.2 0.00 0.21 0.21 59 1011.2
20260505171804 68 147 1.7 3.5 0.00 0.21 0.21 60 1010.9
20260505171301 68 140 0.0 2.6 0.00 0.21 0.21 59 1011.1
20260505170758 67 357 0.9 1.7 0.00 0.21 0.21 59 1011.1
20260505170255 66 266 0.9 1.7 0.00 0.21 0.21 60 1010.9
20260505165755 67 154 3.5 3.5 0.00 0.21 0.21 58 1010.8
20260505165252 66 81 0.9 2.6 0.00 0.21 0.21 64 1010.9
20260505164747 65 148 0.9 0.9 0.00 0.21 0.21 63 1011.1
20260505164245 65 85 2.6 3.5 0.00 0.21 0.21 64 1011.2
20260505163743 65 151 0.9 2.6 0.00 0.21 0.21 64 1011.2
20260505163241 64 125 0.9 2.6 0.00 0.21 0.21 66 1011.2
20260505162739 64 69 0.0 1.7 0.00 0.21 0.21 66 1010.9
20260505162235 64 96 0.9 1.7 0.00 0.21 0.21 68 1011.1
20260505161732 65 107 0.9 1.7 0.00 0.21 0.21 67 1011.2
20260505161230 65 113 0.0 1.7 0.00 0.21 0.21 68 1010.8
20260505160727 64 153 0.0 0.0 0.00 0.21 0.21 66 1010.9
20260505160225 64 107 0.0 0.9 0.00 0.21 0.21 68 1011.1
20260505153203 62 138 0.9 2.6 0.00 0.21 0.21 75 1010.8
20260505152700 62 142 0.9 0.9 0.00 0.21 0.21 78 1010.8
20260505152156 61 161 0.9 1.7 0.00 0.21 0.21 79 1010.9
20260505151651 61 124 0.0 0.0 0.00 0.21 0.21 78 1010.8
20260505151149 61 59 0.0 0.0 0.00 0.21 0.21 81 1010.9
20260505150645 61 58 0.0 0.0 0.00 0.21 0.21 81 1010.9
20260505150142 61 58 0.0 0.0 0.00 0.21 0.21 82 1010.8
20260505140611 59 266 0.0 0.0 0.00 0.21 0.21 82 1010.4
20260505140108 59 272 0.0 0.0 0.00 0.21 0.21 82 1010.4
20260505125024 56 269 1.7 1.7 0.00 0.21 0.21 91 1009.9
20260505124521 56 281 1.7 1.7 0.00 0.21 0.21 91 1010.0
20260505124017 56 273 0.9 1.7 0.00 0.21 0.21 91 1010.0
20260505123514 57 248 0.9 1.7 0.00 0.21 0.21 91 1010.0
20260505123010 57 257 1.7 3.5 0.00 0.21 0.21 90 1009.4
20260505122507 57 302 1.7 3.5 0.00 0.21 0.21 90 1009.5
20260505122004 57 284 1.7 1.7 0.00 0.21 0.21 90 1009.7
20260505121501 57 272 0.0 0.9 0.00 0.21 0.21 90 1009.7
20260505120957 56 265 0.9 1.7 0.00 0.21 0.21 89 1009.6
20260505120453 56 259 0.0 0.9 0.00 0.21 0.21 89 1009.5
20260505115952 56 274 0.0 1.7 0.00 0.21 0.21 89 1009.5
20260505115449 56 250 2.6 3.5 0.00 0.21 0.21 88 1009.1
20260505114947 56 269 1.7 1.7 0.07 0.21 0.21 89 1009.2
20260505114443 56 275 1.7 2.6 0.07 0.21 0.21 90 1009.2
20260505113940 56 276 1.7 3.5 0.00 0.20 0.20 89 1009.0
20260505113436 57 232 1.7 3.5 0.00 0.20 0.20 88 1009.2
20260505112932 57 238 1.7 5.2 0.00 0.20 0.20 87 1009.4
20260505112430 57 261 1.7 2.6 0.00 0.20 0.20 88 1009.9
20260505111926 57 262 2.6 3.5 0.00 0.20 0.20 88 1009.7
20260505111421 57 312 1.7 2.6 0.05 0.20 0.20 89 1009.9
20260505110917 57 255 1.7 2.6 0.05 0.20 0.20 88 1009.5
20260505110414 57 311 0.9 1.7 0.00 0.19 0.19 88 1009.9
20260505101845 57 266 2.6 5.2 0.00 0.18 0.18 92 1010.5
20260505101340 57 240 0.9 6.1 0.00 0.18 0.18 92 1010.6
20260505100836 57 283 2.6 3.5 0.00 0.18 0.18 92 1010.5
20260505100333 57 281 3.5 6.1 0.00 0.18 0.18 92 1010.7
20260505095828 57 274 3.5 5.2 0.00 0.18 0.18 93 1010.6
20260505095326 56 241 2.6 3.5 0.00 0.18 0.18 93 1010.7
20260505094822 57 228 4.3 6.1 0.00 0.18 0.18 93 1010.9
20260505094319 57 264 1.7 7.0 0.05 0.18 0.18 93 1011.1
20260505093814 57 274 1.7 5.2 0.05 0.18 0.18 93 1010.9
20260505093312 56 282 1.7 6.1 0.00 0.17 0.17 93 1011.2
20260505092808 57 278 3.5 3.5 0.07 0.17 0.17 93 1011.6
20260505092307 57 309 0.9 2.6 0.07 0.17 0.17 93 1011.7
20260505091804 57 258 1.7 3.5 0.05 0.16 0.16 93 1011.6
20260505091302 57 197 1.7 3.5 0.05 0.16 0.16 93 1011.8
20260505090800 57 324 1.7 3.5 0.07 0.15 0.15 93 1012.0
20260505090258 57 294 0.0 1.7 0.07 0.15 0.15 93 1012.4
20260505085755 57 201 0.9 2.6 0.07 0.14 0.14 93 1012.6
20260505085253 57 291 0.9 1.7 0.07 0.14 0.14 93 1012.6
20260505084750 57 275 0.9 3.5 0.05 0.13 0.13 92 1012.6
20260505084249 57 278 0.9 1.7 0.05 0.13 0.13 92 1012.9
20260505083745 57 275 0.0 1.7 0.07 0.12 0.12 92 1013.1
20260505083242 57 284 0.0 0.9 0.07 0.12 0.12 92 1013.0
20260505082739 57 268 1.7 1.7 0.05 0.11 0.11 92 1013.1
20260505082236 57 260 0.0 1.7 0.12 0.11 0.11 92 1013.2
20260505081732 57 274 1.7 1.7 0.07 0.10 0.10 92 1013.3
20260505081229 57 255 0.0 0.9 0.05 0.09 0.09 92 1013.3
20260505080726 57 357 0.0 0.0 0.12 0.09 0.09 91 1013.5
20260505080221 57 3 0.0 0.0 0.05 0.07 0.07 91 1013.5
20260505075717 57 20 0.0 0.0 0.05 0.07 0.07 91 1013.8
20260505075215 57 22 0.0 0.0 0.07 0.06 0.06 91 1013.7
20260505074712 57 130 0.0 0.0 0.05 0.05 0.05 91 1013.8
20260505074209 57 150 0.9 0.9 0.12 0.05 0.05 91 1013.8
20260505073707 57 103 0.0 1.7 0.12 0.04 0.04 90 1013.9
20260505073204 57 139 0.0 0.0 0.12 0.03 0.03 91 1013.7
20260505072700 57 79 0.0 0.0 0.07 0.02 0.02 91 1013.7
20260505072156 57 78 0.0 0.0 0.00 0.01 0.01 90 1013.7
20260505071652 57 72 0.0 0.0 0.07 0.01 0.01 90 1013.7
20260505071150 57 74 0.0 0.0 0.00 0.00 0.00 89 1013.7
20260505070647 57 22 0.0 0.0 0.05 0.00 0.00 89 1013.5
20260505070143 58 142 0.0 0.9 0.05 0.00 0.00 89 1013.3
20260505065639 58 143 0.0 0.0 0.00 0.03 0.03 88 1013.5
20260505065136 58 106 0.0 0.0 0.07 0.03 0.03 87 1013.5
20260505064633 58 101 0.0 0.9 0.07 0.03 0.03 86 1013.2
20260505064131 58 132 0.0 0.9 0.00 0.02 0.02 85 1012.9
20260505063628 58 182 1.7 2.6 0.00 0.02 0.02 84 1013.1
20260505063124 58 130 1.7 2.6 0.00 0.02 0.02 83 1013.0
20260505062621 58 147 0.9 1.7 0.05 0.02 0.02 85 1013.1
20260505062118 58 89 0.0 1.7 0.05 0.02 0.02 83 1013.2
20260505061615 58 94 0.0 1.7 0.07 0.01 0.01 83 1013.2
20260505061113 58 134 0.9 1.7 0.07 0.01 0.01 84 1013.2
20260505060610 59 117 0.0 0.0 0.00 0.00 0.00 83 1013.6
20260505060107 58 117 0.0 0.0 0.00 0.00 0.00 80 1013.1
20260505055602 59 117 0.0 0.0 0.00 0.00 0.00 81 1013.1
20260505055059 59 117 0.0 0.0 0.00 0.00 0.00 76 1013.0
20260505054556 59 116 0.0 0.9 0.00 0.00 0.00 76 1013.0
20260505054055 59 128 0.0 0.0 0.00 0.00 0.00 75 1012.9
20260505053551 60 138 0.9 1.7 0.00 0.00 0.00 72 1013.0
20260505053048 60 140 0.0 1.7 0.00 0.00 0.00 70 1013.0
20260505052545 61 170 2.6 2.6 0.00 0.00 0.00 66 1013.2
20260505052043 61 116 1.7 2.6 0.00 0.00 0.00 65 1013.3
20260505051539 61 92 0.9 1.7 0.00 0.00 0.00 62 1013.6
20260505051037 61 138 1.7 5.2 0.00 0.00 0.00 62 1013.5
20260505050535 61 170 0.0 1.7 0.00 0.00 0.00 63 1013.3
20260505041503 60 84 0.0 0.0 0.00 0.00 0.00 73 1012.7
20260505041000 60 84 0.0 0.0 0.00 0.00 0.00 72 1013.2
20260505040457 60 83 0.0 0.0 0.00 0.00 0.00 71 1013.0
20260505035954 60 113 0.0 0.0 0.00 0.00 0.00 72 1012.9
20260505035450 60 142 0.0 0.0 0.00 0.00 0.00 69 1012.8
20260505034948 60 136 0.0 0.0 0.00 0.00 0.00 69 1012.5
20260505034444 60 134 0.0 0.0 0.00 0.00 0.00 66 1012.4
20260505033941 60 147 0.0 0.0 0.00 0.00 0.00 67 1012.4
20260505033438 60 126 0.0 0.0 0.00 0.00 0.00 65 1012.6
20260505032936 60 141 0.0 0.9 0.00 0.00 0.00 64 1012.4
20260505032433 60 126 1.7 2.6 0.00 0.00 0.00 64 1012.5
20260505031929 60 136 3.5 5.2 0.00 0.00 0.00 64 1012.7
20260505031427 60 130 0.9 2.6 0.00 0.00 0.00 65 1012.4
20260505030923 61 147 5.2 7.0 0.00 0.00 0.00 62 1012.4
20260505030419 61 134 3.5 7.0 0.00 0.00 0.00 59 1012.6
20260505025915 61 140 6.1 8.7 0.00 0.00 0.00 57 1012.6
20260505025412 61 171 2.6 3.5 0.00 0.00 0.00 58 1012.7
20260505024911 61 155 5.2 7.8 0.00 0.00 0.00 57 1012.5
20260505024408 62 209 3.5 12.2 0.00 0.00 0.00 57 1012.5
20260505023905 63 104 4.3 7.8 0.00 0.00 0.00 54 1012.4
20260505023402 64 118 0.0 3.5 0.00 0.00 0.00 48 1012.5
20260505022859 64 126 1.7 9.6 0.00 0.00 0.00 43 1012.6
20260505022356 63 117 5.2 8.7 0.00 0.00 0.00 49 1012.6
20260505021854 64 119 3.5 16.5 0.00 0.00 0.00 46 1012.4
20260505021350 62 157 7.8 9.6 0.00 0.00 0.00 56 1012.6
20260505020846 62 166 6.1 11.3 0.00 0.00 0.00 57 1012.5
20260505020341 62 113 3.5 11.3 0.00 0.00 0.00 60 1012.5
20260505015838 61 129 5.2 7.0 0.00 0.00 0.00 61 1012.3
20260505015336 63 129 5.2 11.3 0.00 0.00 0.00 57 1012.4
20260505014833 64 181 7.8 9.6 0.00 0.00 0.00 52 1012.6
20260505014330 64 115 2.6 7.8 0.00 0.00 0.00 52 1012.7
20260505013826 65 124 5.2 7.8 0.00 0.00 0.00 52 1012.6